sat.trackr.live / text

‹ back to catalog

KUIPER-00453

NORAD 68947 · 2026-098AE

PAYLOAD ACTIVE UNKNOWN

§ Identity

Operator
Country
US
Launch date
2026-04-30
Launch site
FRGUI
Launch vehicle
Mass (kg)
RCS (m²)

External: N2YO · Heavens-Above · Gunter

§ Orbital elements

Epoch: 2026-09-20T04:41:47.948640Z

Period
97.30 min
Inclination
51.8991°
Eccentricity
0.0001960
Mean motion
14.79937021 rev/d
Perigee alt
628.1 km
Apogee alt
630.9 km
Semi-major
7,007.7 km
B*
2.2208e-4
RAAN
347.9637°
Arg perigee
140.5852°
Mean anomaly
219.5253°
Rev number
2,169

§ Raw data

KUIPER-004531 68947U 26098AE  26263.19569385  .00001472  00000+0  22208-3 0  99942 68947  51.8991 347.9637 0001960 140.5852 219.5253 14.79937021 21697

JSON: /api/v1/satellites/68947 · /tle

For live sub-satellite position, see the globe view (requires WebGL).

§ Visibility from observer

Set your observer location to see the next 7 days of passes ≥ 10°. The values pass through the URL so the page stays shareable.

No JS? Fill the form by hand. The geolocation button needs JavaScript.